Location: Caltech
(34.1382°N, 118.1253°W)
Time: 22:16:24
(UTC-07:00)

Oscar 19 - Visible Passes

Search period start: 27 April 2015 00:00
Search period end: 07 May 2015 00:00
Orbit: 775 x 790 km, 98.5° (Epoch: 26 April)

Date Brightness Start Highest point End Pass type
(mag) Time Alt. Az. Time Alt. Az. Time Alt. Az.
27 Apr 12.5 02:17:27 10° NNE 02:19:46 27° NNE 02:19:46 27° NNE visible
27 Apr 12.9 03:59:31 10° NW 04:00:20 11° NW 04:00:20 11° NW visible
28 Apr 13.0 01:46:10 10° NNE 01:47:46 19° NE 01:47:46 19° NE visible
28 Apr 12.4 03:25:54 10° NNW 03:28:21 20° NW 03:28:21 20° NW visible
29 Apr 13.5 01:15:46 10° NE 01:15:47 10° NE 01:15:47 10° NE visible
29 Apr 12.1 02:53:32 10° N 02:56:21 30° NNW 02:56:21 30° NNW visible
30 Apr 12.3 02:21:42 10° NNE 02:24:21 31° NNE 02:24:21 31° NNE visible
30 Apr 12.9 04:04:32 10° NW 04:04:55 10° NW 04:04:55 10° NW visible
01 May 12.8 01:50:21 10° NNE 01:52:21 22° NE 01:52:21 22° NE visible
01 May 12.4 03:30:19 10° NNW 03:32:56 20° NW 03:32:56 20° NW visible
02 May 13.3 01:19:46 10° NE 01:20:21 12° NE 01:20:21 12° NE visible
02 May 12.0 02:57:52 10° N 03:00:55 31° NNW 03:00:55 31° NNW visible
03 May 12.0 02:25:58 10° NNE 02:28:55 35° NNE 02:28:55 35° NNE visible
04 May 12.6 01:54:32 10° NNE 01:56:55 25° NE 01:56:55 25° NE visible
04 May 12.4 03:34:46 10° NNW 03:37:29 19° NW 03:37:29 19° NW visible
05 May 13.2 01:23:48 10° NE 01:24:55 14° ENE 01:24:55 14° ENE visible
05 May 11.9 03:02:11 10° N 03:05:29 32° NNW 03:05:29 32° NNW visible
06 May 11.8 02:30:14 10° N 02:33:28 39° N 02:33:28 39° N visible
